Year,Month,Day,Hour,Minute,Value (Times are PST for temperature in C)
2017,07,15,00,00,15.40
2017,07,15,00,01,15.40
2017,07,15,00,02,15.30
2017,07,15,00,03,15.30
2017,07,15,00,04,15.30
2017,07,15,00,05,15.30
2017,07,15,00,06,15.30
2017,07,15,00,07,15.30
2017,07,15,00,08,15.30
2017,07,15,00,09,15.30
2017,07,15,00,10,15.30
2017,07,15,00,11,15.30
2017,07,15,00,12,15.20
2017,07,15,00,13,15.20
2017,07,15,00,14,15.20
2017,07,15,00,15,15.10
2017,07,15,00,16,15.10
2017,07,15,00,17,15.10
2017,07,15,00,18,15.10
2017,07,15,00,19,15.00
2017,07,15,00,20,15.00
2017,07,15,00,21,15.00
2017,07,15,00,22,15.00
2017,07,15,00,23,14.90
2017,07,15,00,24,14.90
2017,07,15,00,25,14.90
2017,07,15,00,26,14.90
2017,07,15,00,27,14.90
2017,07,15,00,28,14.90
2017,07,15,00,29,14.90
2017,07,15,00,30,14.90
2017,07,15,00,31,14.90
2017,07,15,00,32,14.90
2017,07,15,00,33,14.90
2017,07,15,00,34,14.90
2017,07,15,00,35,14.80
2017,07,15,00,36,14.80
2017,07,15,00,37,14.80
2017,07,15,00,38,14.80
2017,07,15,00,39,14.80
2017,07,15,00,40,14.80
2017,07,15,00,41,14.80
2017,07,15,00,42,14.80
2017,07,15,00,43,14.80
2017,07,15,00,44,14.80
2017,07,15,00,45,14.80
2017,07,15,00,46,14.80
2017,07,15,00,47,14.80
2017,07,15,00,48,14.80
2017,07,15,00,49,14.80
2017,07,15,00,50,14.80
2017,07,15,00,51,14.80
2017,07,15,00,52,14.80
2017,07,15,00,53,14.80
2017,07,15,00,54,14.80
2017,07,15,00,55,14.80
2017,07,15,00,56,14.80
2017,07,15,00,57,14.80
2017,07,15,00,58,14.80
2017,07,15,00,59,14.80
2017,07,15,01,00,14.80
2017,07,15,01,01,14.80
2017,07,15,01,03,14.70
2017,07,15,01,04,14.70
2017,07,15,01,06,14.70
2017,07,15,01,07,14.70
2017,07,15,01,08,14.70
2017,07,15,01,09,14.70
2017,07,15,01,11,14.70
2017,07,15,01,12,14.70
2017,07,15,01,13,14.70
2017,07,15,01,14,14.60
2017,07,15,01,16,14.60
2017,07,15,01,17,14.60
2017,07,15,01,18,14.60
2017,07,15,01,19,14.50
2017,07,15,01,21,14.50
2017,07,15,01,22,14.50
2017,07,15,01,23,14.40
2017,07,15,01,24,14.40
2017,07,15,01,26,14.40
2017,07,15,01,27,14.40
2017,07,15,01,28,14.40
2017,07,15,01,29,14.40
2017,07,15,01,31,14.40
2017,07,15,01,32,14.40
2017,07,15,01,33,14.40
2017,07,15,01,34,14.40
2017,07,15,01,36,14.40
2017,07,15,01,37,14.40
2017,07,15,01,38,14.40
2017,07,15,01,39,14.40
2017,07,15,01,41,14.40
2017,07,15,01,42,14.40
2017,07,15,01,43,14.40
2017,07,15,01,44,14.40
2017,07,15,01,46,14.40
2017,07,15,01,47,14.40
2017,07,15,01,48,14.40
2017,07,15,01,49,14.40
2017,07,15,01,51,14.40
2017,07,15,01,52,14.40
2017,07,15,01,53,14.40
2017,07,15,01,54,14.40
2017,07,15,01,56,14.40
2017,07,15,01,57,14.40
2017,07,15,01,58,14.30
2017,07,15,01,59,14.30
2017,07,15,02,01,14.30
2017,07,15,02,02,14.30
2017,07,15,02,03,14.30
2017,07,15,02,04,14.30
2017,07,15,02,06,14.20
2017,07,15,02,07,14.20
2017,07,15,02,08,14.20
2017,07,15,02,09,14.20
2017,07,15,02,11,14.20
2017,07,15,02,12,14.20
2017,07,15,02,13,14.20
2017,07,15,02,14,14.20
2017,07,15,02,16,14.20
2017,07,15,02,17,14.20
2017,07,15,02,18,14.20
2017,07,15,02,19,14.20
2017,07,15,02,21,14.20
2017,07,15,02,22,14.20
2017,07,15,02,23,14.20
2017,07,15,02,24,14.20
2017,07,15,02,25,14.20
2017,07,15,02,26,14.20
2017,07,15,02,27,14.20
2017,07,15,02,28,14.20
2017,07,15,02,29,14.20
2017,07,15,02,30,14.20
2017,07,15,02,31,14.20
2017,07,15,02,32,14.20
2017,07,15,02,33,14.30
2017,07,15,02,34,14.30
2017,07,15,02,36,14.30
2017,07,15,02,37,14.30
2017,07,15,02,38,14.30
2017,07,15,02,39,14.30
2017,07,15,02,40,14.30
2017,07,15,02,41,14.30
2017,07,15,02,42,14.30
2017,07,15,02,43,14.30
2017,07,15,02,44,14.30
2017,07,15,02,45,14.30
2017,07,15,02,46,14.30
2017,07,15,02,47,14.30
2017,07,15,02,48,14.20
2017,07,15,02,49,14.20
2017,07,15,02,50,14.20
2017,07,15,02,51,14.20
2017,07,15,02,52,14.20
2017,07,15,02,53,14.20
2017,07,15,02,54,14.20
2017,07,15,02,55,14.20
2017,07,15,02,56,14.20
2017,07,15,02,57,14.20
2017,07,15,02,58,14.20
2017,07,15,02,59,14.20
2017,07,15,03,00,14.20
2017,07,15,03,01,14.20
2017,07,15,03,02,14.20
2017,07,15,03,03,14.20
2017,07,15,03,04,14.20
2017,07,15,03,05,14.10
2017,07,15,03,06,14.10
2017,07,15,03,07,14.10
2017,07,15,03,08,14.10
2017,07,15,03,09,14.10
2017,07,15,03,10,14.10
2017,07,15,03,11,14.10
2017,07,15,03,12,14.00
2017,07,15,03,13,14.00
2017,07,15,03,14,14.00
2017,07,15,03,15,14.00
2017,07,15,03,16,14.00
2017,07,15,03,17,14.00
2017,07,15,03,18,14.00
2017,07,15,03,19,14.00
2017,07,15,03,20,14.00
2017,07,15,03,21,14.00
2017,07,15,03,22,14.00
2017,07,15,03,23,14.00
2017,07,15,03,24,14.00
2017,07,15,03,25,14.00
2017,07,15,03,26,14.00
2017,07,15,03,27,14.00
2017,07,15,03,28,14.00
2017,07,15,03,29,14.00
2017,07,15,03,30,13.90
2017,07,15,03,31,13.90
2017,07,15,03,32,13.90
2017,07,15,03,33,13.90
2017,07,15,03,34,13.90
2017,07,15,03,35,13.90
2017,07,15,03,36,13.90
2017,07,15,03,37,13.90
2017,07,15,03,38,13.90
2017,07,15,03,39,13.80
2017,07,15,03,41,13.80
2017,07,15,03,42,13.80
2017,07,15,03,43,13.80
2017,07,15,03,44,13.80
2017,07,15,03,46,13.80
2017,07,15,03,47,13.70
2017,07,15,03,48,13.70
2017,07,15,03,49,13.70
2017,07,15,03,51,13.70
2017,07,15,03,52,13.70
2017,07,15,03,53,13.70
2017,07,15,03,54,13.70
2017,07,15,03,56,13.70
2017,07,15,03,57,13.70
2017,07,15,03,58,13.70
2017,07,15,03,59,13.70
2017,07,15,04,01,13.70
2017,07,15,04,02,13.70
2017,07,15,04,03,13.70
2017,07,15,04,04,13.70
2017,07,15,04,06,13.70
2017,07,15,04,07,13.70
2017,07,15,04,08,13.70
2017,07,15,04,09,13.70
2017,07,15,04,11,13.70
2017,07,15,04,12,13.70
2017,07,15,04,13,13.70
2017,07,15,04,14,13.70
2017,07,15,04,16,13.60
2017,07,15,04,17,13.60
2017,07,15,04,18,13.60
2017,07,15,04,19,13.60
2017,07,15,04,21,13.60
2017,07,15,04,22,13.60
2017,07,15,04,23,13.60
2017,07,15,04,24,13.60
2017,07,15,04,26,13.60
2017,07,15,04,27,13.60
2017,07,15,04,28,13.60
2017,07,15,04,29,13.60
2017,07,15,04,31,13.60
2017,07,15,04,32,13.60
2017,07,15,04,33,13.50
2017,07,15,04,34,13.60
2017,07,15,04,36,13.50
2017,07,15,04,37,13.50
2017,07,15,04,38,13.60
2017,07,15,04,39,13.60
2017,07,15,04,41,13.60
2017,07,15,04,42,13.60
2017,07,15,04,43,13.60
2017,07,15,04,44,13.60
2017,07,15,04,46,13.50
2017,07,15,04,47,13.50
2017,07,15,04,48,13.50
2017,07,15,04,49,13.50
2017,07,15,04,51,13.50
2017,07,15,04,52,13.50
2017,07,15,04,53,13.50
2017,07,15,04,54,13.50
2017,07,15,04,55,13.50
2017,07,15,04,56,13.50
2017,07,15,04,57,13.50
2017,07,15,04,58,13.50
2017,07,15,04,59,13.50
2017,07,15,05,00,13.50
2017,07,15,05,01,13.50
2017,07,15,05,02,13.50
2017,07,15,05,03,13.50
2017,07,15,05,04,13.40
2017,07,15,05,06,13.40
2017,07,15,05,07,13.40
2017,07,15,05,08,13.40
2017,07,15,05,09,13.40
2017,07,15,05,10,13.40
2017,07,15,05,11,13.40
2017,07,15,05,12,13.40
2017,07,15,05,13,13.40
2017,07,15,05,14,13.40
2017,07,15,05,15,13.40
2017,07,15,05,16,13.40
2017,07,15,05,17,13.30
2017,07,15,05,18,13.30
2017,07,15,05,19,13.30
2017,07,15,05,20,13.30
2017,07,15,05,21,13.30
2017,07,15,05,22,13.30
2017,07,15,05,23,13.30
2017,07,15,05,24,13.30
2017,07,15,05,25,13.30
2017,07,15,05,26,13.30
2017,07,15,05,27,13.30
2017,07,15,05,28,13.30
2017,07,15,05,29,13.30
2017,07,15,05,30,13.30
2017,07,15,05,31,13.30
2017,07,15,05,32,13.30
2017,07,15,05,33,13.30
2017,07,15,05,34,13.30
2017,07,15,05,35,13.30
2017,07,15,05,36,13.30
2017,07,15,05,37,13.30
2017,07,15,05,38,13.30
2017,07,15,05,39,13.30
2017,07,15,05,40,13.30
2017,07,15,05,41,13.30
2017,07,15,05,42,13.30
2017,07,15,05,43,13.30
2017,07,15,05,44,13.30
2017,07,15,05,45,13.30
2017,07,15,05,46,13.30
2017,07,15,05,47,13.40
2017,07,15,05,48,13.40
2017,07,15,05,49,13.40
2017,07,15,05,50,13.40
2017,07,15,05,51,13.50
2017,07,15,05,52,13.50
2017,07,15,05,53,13.50
2017,07,15,05,54,13.50
2017,07,15,05,55,13.50
2017,07,15,05,56,13.50
2017,07,15,05,57,13.60
2017,07,15,05,58,13.60
2017,07,15,05,59,13.60
2017,07,15,06,00,13.60
2017,07,15,06,01,13.60
2017,07,15,06,02,13.60
2017,07,15,06,03,13.60
2017,07,15,06,04,13.60
2017,07,15,06,05,13.70
2017,07,15,06,06,13.70
2017,07,15,06,07,13.70
2017,07,15,06,08,13.70
2017,07,15,06,09,13.70
2017,07,15,06,10,13.70
2017,07,15,06,11,13.70
2017,07,15,06,13,13.70
2017,07,15,06,14,13.70
2017,07,15,06,16,13.70
2017,07,15,06,17,13.70
2017,07,15,06,18,13.70
2017,07,15,06,19,13.70
2017,07,15,06,21,13.70
2017,07,15,06,22,13.70
2017,07,15,06,23,13.70
2017,07,15,06,24,13.70
2017,07,15,06,26,13.70
2017,07,15,06,27,13.70
2017,07,15,06,28,13.70
2017,07,15,06,29,13.70
2017,07,15,06,31,13.70
2017,07,15,06,32,13.70
2017,07,15,06,33,13.70
2017,07,15,06,34,13.70
2017,07,15,06,36,13.80
2017,07,15,06,37,13.80
2017,07,15,06,38,13.80
2017,07,15,06,39,13.80
2017,07,15,06,41,13.80
2017,07,15,06,42,13.90
2017,07,15,06,43,13.90
2017,07,15,06,44,13.90
2017,07,15,06,46,13.90
2017,07,15,06,47,13.90
2017,07,15,06,48,13.90
2017,07,15,06,49,13.90
2017,07,15,06,51,13.90
2017,07,15,06,52,13.90
2017,07,15,06,53,14.00
2017,07,15,06,54,14.00
2017,07,15,06,56,14.00
2017,07,15,06,57,14.00
2017,07,15,06,58,14.00
2017,07,15,06,59,14.10
2017,07,15,07,01,14.10
2017,07,15,07,02,14.10
2017,07,15,07,03,14.10
2017,07,15,07,04,14.10
2017,07,15,07,06,14.20
2017,07,15,07,07,14.20
2017,07,15,07,08,14.20
2017,07,15,07,09,14.20
2017,07,15,07,11,14.20
2017,07,15,07,12,14.20
2017,07,15,07,13,14.20
2017,07,15,07,14,14.20
2017,07,15,07,16,14.30
2017,07,15,07,17,14.30
2017,07,15,07,18,14.30
2017,07,15,07,19,14.30
2017,07,15,07,21,14.40
2017,07,15,07,22,14.40
2017,07,15,07,23,14.40
2017,07,15,07,24,14.40
2017,07,15,07,26,14.50
2017,07,15,07,27,14.50
2017,07,15,07,28,14.50
2017,07,15,07,29,14.60
2017,07,15,07,31,14.60
2017,07,15,07,32,14.60
2017,07,15,07,33,14.60
2017,07,15,07,34,14.60
2017,07,15,07,36,14.70
2017,07,15,07,37,14.70
2017,07,15,07,38,14.70
2017,07,15,07,39,14.80
2017,07,15,07,41,14.80
2017,07,15,07,42,14.80
2017,07,15,07,43,14.80
2017,07,15,07,44,14.80
2017,07,15,07,45,14.90
2017,07,15,07,46,14.90
2017,07,15,07,47,14.90
2017,07,15,07,48,14.90
2017,07,15,07,49,15.00
2017,07,15,07,50,15.00
2017,07,15,07,51,15.00
2017,07,15,07,52,15.10
2017,07,15,07,53,15.10
2017,07,15,07,54,15.10
2017,07,15,07,55,15.20
2017,07,15,07,56,15.20
2017,07,15,07,57,15.20
2017,07,15,07,58,15.30
2017,07,15,07,59,15.30
2017,07,15,08,00,15.30
2017,07,15,08,01,15.30
2017,07,15,08,02,15.30
2017,07,15,08,03,15.40
2017,07,15,08,04,15.40
2017,07,15,08,05,15.50
2017,07,15,08,06,15.50
2017,07,15,08,07,15.60
2017,07,15,08,08,15.60
2017,07,15,08,09,15.60
2017,07,15,08,10,15.70
2017,07,15,08,11,15.70
2017,07,15,08,12,15.80
2017,07,15,08,13,15.80
2017,07,15,08,14,15.80
2017,07,15,08,15,15.80
2017,07,15,08,16,15.80
2017,07,15,08,17,15.90
2017,07,15,08,18,16.10
2017,07,15,08,19,16.10
2017,07,15,08,20,16.10
2017,07,15,08,21,16.10
2017,07,15,08,22,16.20
2017,07,15,08,23,16.30
2017,07,15,08,24,16.30
2017,07,15,08,25,16.40
2017,07,15,08,26,16.40
2017,07,15,08,27,16.60
2017,07,15,08,28,16.70
2017,07,15,08,29,16.70
2017,07,15,08,30,16.80
2017,07,15,08,31,16.90
2017,07,15,08,32,16.90
2017,07,15,08,33,17.00
2017,07,15,08,34,17.10
2017,07,15,08,35,17.20
2017,07,15,08,36,17.20
2017,07,15,08,37,17.30
2017,07,15,08,38,17.30
2017,07,15,08,39,17.30
2017,07,15,08,40,17.30
2017,07,15,08,41,17.40
2017,07,15,08,42,17.40
2017,07,15,08,43,17.50
2017,07,15,08,44,17.50
2017,07,15,08,45,17.60
2017,07,15,08,46,17.60
2017,07,15,08,47,17.70
2017,07,15,08,48,17.70
2017,07,15,08,49,17.80
2017,07,15,08,50,17.90
2017,07,15,08,51,17.90
2017,07,15,08,52,17.90
2017,07,15,08,53,18.10
2017,07,15,08,54,18.10
2017,07,15,08,55,18.20
2017,07,15,08,56,18.20
2017,07,15,08,57,18.20
2017,07,15,08,58,18.20
2017,07,15,08,59,18.20
2017,07,15,09,00,18.20
2017,07,15,09,02,18.20
2017,07,15,09,03,18.20
2017,07,15,09,04,18.20
2017,07,15,09,06,18.20
2017,07,15,09,07,18.20
2017,07,15,09,08,18.20
2017,07,15,09,09,18.20
2017,07,15,09,11,18.20
2017,07,15,09,12,18.20
2017,07,15,09,13,18.20
2017,07,15,09,14,18.10
2017,07,15,09,16,18.10
2017,07,15,09,17,17.90
2017,07,15,09,18,17.90
2017,07,15,09,19,17.90
2017,07,15,09,21,18.10
2017,07,15,09,22,18.10
2017,07,15,09,23,18.10
2017,07,15,09,24,18.20
2017,07,15,09,26,18.10
2017,07,15,09,27,18.10
2017,07,15,09,28,18.10
2017,07,15,09,29,18.10
2017,07,15,09,31,17.90
2017,07,15,09,32,17.90
2017,07,15,09,33,17.90
2017,07,15,09,34,17.90
2017,07,15,09,36,17.90
2017,07,15,09,37,17.90
2017,07,15,09,38,17.90
2017,07,15,09,39,17.90
2017,07,15,09,41,17.90
2017,07,15,09,42,18.10
2017,07,15,09,43,18.10
2017,07,15,09,44,18.20
2017,07,15,09,46,18.20
2017,07,15,09,47,18.20
2017,07,15,09,48,18.20
2017,07,15,09,49,18.20
2017,07,15,09,51,18.20
2017,07,15,09,52,18.20
2017,07,15,09,53,18.20
2017,07,15,09,54,18.20
2017,07,15,09,56,18.20
2017,07,15,09,57,18.20
2017,07,15,09,58,18.30
2017,07,15,09,59,18.30
2017,07,15,10,01,18.40
2017,07,15,10,02,18.30
2017,07,15,10,03,18.30
2017,07,15,10,04,18.30
2017,07,15,10,06,18.20
2017,07,15,10,07,18.20
2017,07,15,10,08,18.10
2017,07,15,10,09,17.90
2017,07,15,10,11,17.80
2017,07,15,10,12,17.70
2017,07,15,10,13,17.70
2017,07,15,10,14,17.60
2017,07,15,10,16,17.60
2017,07,15,10,17,17.60
2017,07,15,10,18,17.60
2017,07,15,10,19,17.70
2017,07,15,10,21,17.70
2017,07,15,10,22,17.70
2017,07,15,10,23,17.80
2017,07,15,10,24,17.80
2017,07,15,10,25,17.80
2017,07,15,10,26,17.80
2017,07,15,10,27,17.80
2017,07,15,10,28,17.80
2017,07,15,10,29,17.80
2017,07,15,10,31,17.70
2017,07,15,10,32,17.70
2017,07,15,10,33,17.70
2017,07,15,10,34,17.60
2017,07,15,10,36,17.50
2017,07,15,10,37,17.40
2017,07,15,10,38,17.40
2017,07,15,10,39,17.40
2017,07,15,10,40,17.40
2017,07,15,10,41,17.40
2017,07,15,10,42,17.30
2017,07,15,10,43,17.30
2017,07,15,10,44,17.30
2017,07,15,10,45,17.30
2017,07,15,10,46,17.30
2017,07,15,10,47,17.30
2017,07,15,10,48,17.30
2017,07,15,10,49,17.30
2017,07,15,10,50,17.30
2017,07,15,10,51,17.30
2017,07,15,10,52,17.30
2017,07,15,10,53,17.30
2017,07,15,10,54,17.30
2017,07,15,10,55,17.30
2017,07,15,10,56,17.30
2017,07,15,10,57,17.30
2017,07,15,10,58,17.30
2017,07,15,10,59,17.20
2017,07,15,11,00,17.30
2017,07,15,11,01,17.30
2017,07,15,11,02,17.30
2017,07,15,11,03,17.30
2017,07,15,11,04,17.30
2017,07,15,11,05,17.30
2017,07,15,11,06,17.30
2017,07,15,11,07,17.30
2017,07,15,11,08,17.30
2017,07,15,11,09,17.30
2017,07,15,11,10,17.30
2017,07,15,11,11,17.40
2017,07,15,11,12,17.40
2017,07,15,11,13,17.40
2017,07,15,11,14,17.50
2017,07,15,11,15,17.50
2017,07,15,11,16,17.40
2017,07,15,11,17,17.40
2017,07,15,11,18,17.40
2017,07,15,11,19,17.30
2017,07,15,11,20,17.30
2017,07,15,11,21,17.30
2017,07,15,11,22,17.30
2017,07,15,11,23,17.30
2017,07,15,11,24,17.30
2017,07,15,11,25,17.30
2017,07,15,11,26,17.30
2017,07,15,11,27,17.30
2017,07,15,11,28,17.30
2017,07,15,11,29,17.30
2017,07,15,11,30,17.30
2017,07,15,11,31,17.40
2017,07,15,11,32,17.40
2017,07,15,11,33,17.50
2017,07,15,11,34,17.50
2017,07,15,11,35,17.60
2017,07,15,11,36,17.70
2017,07,15,11,37,17.70
2017,07,15,11,38,17.80
2017,07,15,11,39,17.80
2017,07,15,11,40,17.80
2017,07,15,11,41,17.80
2017,07,15,11,42,17.90
2017,07,15,11,43,17.90
2017,07,15,11,44,17.90
2017,07,15,11,45,18.10
2017,07,15,11,46,18.20
2017,07,15,11,47,18.20
2017,07,15,11,48,18.20
2017,07,15,11,49,18.20
2017,07,15,11,50,18.30
2017,07,15,11,52,18.40
2017,07,15,11,54,18.50
2017,07,15,11,56,18.70
2017,07,15,11,57,18.70
2017,07,15,11,58,18.70
2017,07,15,11,59,18.70
2017,07,15,12,01,18.70
2017,07,15,12,02,18.70
2017,07,15,12,03,18.70
2017,07,15,12,04,18.60
2017,07,15,12,06,18.60
2017,07,15,12,07,18.70
2017,07,15,12,08,18.70
2017,07,15,12,09,18.70
2017,07,15,12,11,18.80
2017,07,15,12,12,18.70
2017,07,15,12,13,18.70
2017,07,15,12,14,18.60
2017,07,15,12,16,18.40
2017,07,15,12,17,18.40
2017,07,15,12,18,18.30
2017,07,15,12,19,18.30
2017,07,15,12,21,18.30
2017,07,15,12,22,18.30
2017,07,15,12,23,18.30
2017,07,15,12,24,18.30
2017,07,15,12,26,18.40
2017,07,15,12,27,18.50
2017,07,15,12,28,18.50
2017,07,15,12,29,18.60
2017,07,15,12,31,18.50
2017,07,15,12,32,18.50
2017,07,15,12,33,18.60
2017,07,15,12,34,18.60
2017,07,15,12,36,18.50
2017,07,15,12,37,18.50
2017,07,15,12,38,18.50
2017,07,15,12,39,18.50
2017,07,15,12,41,18.60
2017,07,15,12,42,18.60
2017,07,15,12,43,18.60
2017,07,15,12,44,18.60
2017,07,15,12,46,18.70
2017,07,15,12,47,18.60
2017,07,15,12,48,18.60
2017,07,15,12,49,18.70
2017,07,15,12,51,18.70
2017,07,15,12,52,18.70
2017,07,15,12,53,18.80
2017,07,15,12,54,18.90
2017,07,15,12,56,18.90
2017,07,15,12,57,18.90
2017,07,15,12,58,19.10
2017,07,15,12,59,19.10
2017,07,15,13,01,19.10
2017,07,15,13,02,19.10
2017,07,15,13,03,19.20
2017,07,15,13,04,19.20
2017,07,15,13,06,19.10
2017,07,15,13,07,19.10
2017,07,15,13,08,18.90
2017,07,15,13,09,18.90
2017,07,15,13,11,18.90
2017,07,15,13,12,18.80
2017,07,15,13,13,18.80
2017,07,15,13,14,18.80
2017,07,15,13,16,18.90
2017,07,15,13,17,18.90
2017,07,15,13,18,18.90
2017,07,15,13,19,18.90
2017,07,15,13,21,19.10
2017,07,15,13,22,19.10
2017,07,15,13,23,19.20
2017,07,15,13,24,19.30
2017,07,15,13,25,19.30
2017,07,15,13,26,19.40
2017,07,15,13,27,19.50
2017,07,15,13,28,19.50
2017,07,15,13,29,19.50
2017,07,15,13,30,19.50
2017,07,15,13,31,19.50
2017,07,15,13,32,19.40
2017,07,15,13,33,19.40
2017,07,15,13,34,19.50
2017,07,15,13,36,19.60
2017,07,15,13,37,19.70
2017,07,15,13,38,19.80
2017,07,15,13,39,19.90
2017,07,15,13,40,19.90
2017,07,15,13,41,20.10
2017,07,15,13,42,20.20
2017,07,15,13,43,20.20
2017,07,15,13,44,20.20
2017,07,15,13,45,20.30
2017,07,15,13,46,20.30
2017,07,15,13,47,20.30
2017,07,15,13,48,20.40
2017,07,15,13,49,20.40
2017,07,15,13,50,20.50
2017,07,15,13,51,20.50
2017,07,15,13,52,20.50
2017,07,15,13,53,20.50
2017,07,15,13,54,20.60
2017,07,15,13,55,20.60
2017,07,15,13,56,20.70
2017,07,15,13,57,20.70
2017,07,15,13,58,20.80
2017,07,15,13,59,20.80
2017,07,15,14,00,20.80
2017,07,15,14,01,20.80
2017,07,15,14,02,20.80
2017,07,15,14,03,20.80
2017,07,15,14,04,20.90
2017,07,15,14,05,20.90
2017,07,15,14,06,20.90
2017,07,15,14,07,20.90
2017,07,15,14,08,20.90
2017,07,15,14,09,20.90
2017,07,15,14,10,20.90
2017,07,15,14,11,20.90
2017,07,15,14,12,20.90
2017,07,15,14,13,20.90
2017,07,15,14,14,20.90
2017,07,15,14,15,20.90
2017,07,15,14,16,20.90
2017,07,15,14,17,20.90
2017,07,15,14,18,20.80
2017,07,15,14,19,20.80
2017,07,15,14,20,20.70
2017,07,15,14,21,20.60
2017,07,15,14,22,20.60
2017,07,15,14,23,20.60
2017,07,15,14,24,20.60
2017,07,15,14,25,20.50
2017,07,15,14,26,20.50
2017,07,15,14,27,20.50
2017,07,15,14,28,20.50
2017,07,15,14,29,20.50
2017,07,15,14,30,20.50
2017,07,15,14,31,20.50
2017,07,15,14,32,20.50
2017,07,15,14,33,20.50
2017,07,15,14,34,20.50
2017,07,15,14,35,20.50
2017,07,15,14,36,20.50
2017,07,15,14,38,20.50
2017,07,15,14,39,20.50
2017,07,15,14,41,20.50
2017,07,15,14,42,20.60
2017,07,15,14,43,20.60
2017,07,15,14,44,20.60
2017,07,15,14,46,20.60
2017,07,15,14,47,20.70
2017,07,15,14,48,20.70
2017,07,15,14,49,20.70
2017,07,15,14,51,20.80
2017,07,15,14,52,20.80
2017,07,15,14,53,20.80
2017,07,15,14,54,20.90
2017,07,15,14,56,20.90
2017,07,15,14,57,20.90
2017,07,15,14,58,20.90
2017,07,15,14,59,20.90
2017,07,15,15,01,20.90
2017,07,15,15,02,20.90
2017,07,15,15,03,20.90
2017,07,15,15,04,20.90
2017,07,15,15,06,21.00
2017,07,15,15,07,21.00
2017,07,15,15,08,21.00
2017,07,15,15,09,21.00
2017,07,15,15,11,21.00
2017,07,15,15,12,21.10
2017,07,15,15,13,21.20
2017,07,15,15,14,21.30
2017,07,15,15,16,21.40
2017,07,15,15,17,21.60
2017,07,15,15,18,21.60
2017,07,15,15,19,21.60
2017,07,15,15,21,21.70
2017,07,15,15,22,21.70
2017,07,15,15,23,21.70
2017,07,15,15,24,21.80
2017,07,15,15,26,21.90
2017,07,15,15,27,22.00
2017,07,15,15,28,22.00
2017,07,15,15,29,22.10
2017,07,15,15,31,22.30
2017,07,15,15,32,22.30
2017,07,15,15,33,22.40
2017,07,15,15,34,22.40
2017,07,15,15,36,22.50
2017,07,15,15,37,22.50
2017,07,15,15,38,22.50
2017,07,15,15,39,22.50
2017,07,15,15,41,22.50
2017,07,15,15,42,22.50
2017,07,15,15,43,22.50
2017,07,15,15,44,22.40
2017,07,15,15,46,22.50
2017,07,15,15,47,22.50
2017,07,15,15,48,22.60
2017,07,15,15,49,22.50
2017,07,15,15,51,22.50
2017,07,15,15,52,22.50
2017,07,15,15,53,22.40
2017,07,15,15,54,22.40
2017,07,15,15,55,22.50
2017,07,15,15,56,22.50
2017,07,15,15,57,22.50
2017,07,15,15,58,22.50
2017,07,15,15,59,22.60
2017,07,15,16,00,22.60
2017,07,15,16,01,22.50
2017,07,15,16,02,22.50
2017,07,15,16,03,22.50
2017,07,15,16,04,22.60
2017,07,15,16,06,22.50
2017,07,15,16,07,22.50
2017,07,15,16,08,22.50
2017,07,15,16,09,22.50
2017,07,15,16,10,22.40
2017,07,15,16,11,22.40
2017,07,15,16,12,22.30
2017,07,15,16,13,22.30
2017,07,15,16,14,22.40
2017,07,15,16,15,22.40
2017,07,15,16,16,22.30
2017,07,15,16,17,22.30
2017,07,15,16,18,22.20
2017,07,15,16,19,22.20
2017,07,15,16,20,22.20
2017,07,15,16,21,22.20
2017,07,15,16,22,22.20
2017,07,15,16,23,22.20
2017,07,15,16,24,22.20
2017,07,15,16,25,22.30
2017,07,15,16,26,22.30
2017,07,15,16,27,22.30
2017,07,15,16,28,22.30
2017,07,15,16,29,22.30
2017,07,15,16,30,22.30
2017,07,15,16,31,22.30
2017,07,15,16,32,22.40
2017,07,15,16,33,22.40
2017,07,15,16,34,22.40
2017,07,15,16,35,22.40
2017,07,15,16,36,22.40
2017,07,15,16,37,22.40
2017,07,15,16,38,22.40
2017,07,15,16,39,22.30
2017,07,15,16,40,22.30
2017,07,15,16,41,22.20
2017,07,15,16,42,22.20
2017,07,15,16,43,22.20
2017,07,15,16,44,22.10
2017,07,15,16,45,22.10
2017,07,15,16,46,22.10
2017,07,15,16,47,22.10
2017,07,15,16,48,22.10
2017,07,15,16,49,22.10
2017,07,15,16,50,22.10
2017,07,15,16,51,22.10
2017,07,15,16,52,22.10
2017,07,15,16,53,22.00
2017,07,15,16,54,22.00
2017,07,15,16,55,22.00
2017,07,15,16,56,21.90
2017,07,15,16,57,21.90
2017,07,15,16,58,21.90
2017,07,15,16,59,21.90
2017,07,15,17,00,21.90
2017,07,15,17,01,21.90
2017,07,15,17,02,22.00
2017,07,15,17,03,22.00
2017,07,15,17,04,21.90
2017,07,15,17,05,21.90
2017,07,15,17,06,21.90
2017,07,15,17,07,21.90
2017,07,15,17,08,21.90
2017,07,15,17,09,21.90
2017,07,15,17,10,21.90
2017,07,15,17,12,22.00
2017,07,15,17,13,22.10
2017,07,15,17,14,22.10
2017,07,15,17,16,22.10
2017,07,15,17,17,22.10
2017,07,15,17,18,22.10
2017,07,15,17,19,22.10
2017,07,15,17,21,22.00
2017,07,15,17,22,21.90
2017,07,15,17,23,21.90
2017,07,15,17,24,21.80
2017,07,15,17,26,21.80
2017,07,15,17,27,21.80
2017,07,15,17,28,21.80
2017,07,15,17,29,21.80
2017,07,15,17,31,21.80
2017,07,15,17,32,21.90
2017,07,15,17,33,21.90
2017,07,15,17,34,21.90
2017,07,15,17,36,22.00
2017,07,15,17,37,22.00
2017,07,15,17,38,22.00
2017,07,15,17,39,22.00
2017,07,15,17,41,22.00
2017,07,15,17,42,21.90
2017,07,15,17,43,21.90
2017,07,15,17,44,21.90
2017,07,15,17,46,21.90
2017,07,15,17,47,21.90
2017,07,15,17,48,21.90
2017,07,15,17,49,21.90
2017,07,15,17,51,22.00
2017,07,15,17,52,22.00
2017,07,15,17,53,21.90
2017,07,15,17,54,21.90
2017,07,15,17,56,21.80
2017,07,15,17,57,21.80
2017,07,15,17,58,21.70
2017,07,15,17,59,21.70
2017,07,15,18,01,21.70
2017,07,15,18,02,21.70
2017,07,15,18,03,21.70
2017,07,15,18,04,21.60
2017,07,15,18,06,21.60
2017,07,15,18,07,21.60
2017,07,15,18,08,21.60
2017,07,15,18,09,21.40
2017,07,15,18,11,21.30
2017,07,15,18,12,21.30
2017,07,15,18,13,21.30
2017,07,15,18,14,21.20
2017,07,15,18,16,21.10
2017,07,15,18,17,21.10
2017,07,15,18,18,21.00
2017,07,15,18,19,20.90
2017,07,15,18,21,20.80
2017,07,15,18,22,20.70
2017,07,15,18,23,20.60
2017,07,15,18,24,20.60
2017,07,15,18,26,20.50
2017,07,15,18,27,20.40
2017,07,15,18,28,20.40
2017,07,15,18,29,20.30
2017,07,15,18,31,20.20
2017,07,15,18,32,20.20
2017,07,15,18,33,20.20
2017,07,15,18,34,20.20
2017,07,15,18,36,20.10
2017,07,15,18,37,20.10
2017,07,15,18,38,20.10
2017,07,15,18,39,19.90
2017,07,15,18,41,19.90
2017,07,15,18,42,19.90
2017,07,15,18,43,19.90
2017,07,15,18,44,19.90
2017,07,15,18,45,19.90
2017,07,15,18,46,19.90
2017,07,15,18,47,19.90
2017,07,15,18,48,19.90
2017,07,15,18,49,19.90
2017,07,15,18,50,19.90
2017,07,15,18,51,19.90
2017,07,15,18,52,19.90
2017,07,15,18,53,19.90
2017,07,15,18,54,19.90
2017,07,15,18,55,19.90
2017,07,15,18,56,19.90
2017,07,15,18,57,19.90
2017,07,15,18,58,19.90
2017,07,15,18,59,19.90
2017,07,15,19,00,19.90
2017,07,15,19,01,19.90
2017,07,15,19,02,19.90
2017,07,15,19,03,19.90
2017,07,15,19,04,19.90
2017,07,15,19,05,19.90
2017,07,15,19,06,19.90
2017,07,15,19,07,19.90
2017,07,15,19,08,19.90
2017,07,15,19,09,19.90
2017,07,15,19,10,19.90
2017,07,15,19,11,19.90
2017,07,15,19,12,19.90
2017,07,15,19,13,19.90
2017,07,15,19,14,19.90
2017,07,15,19,15,19.90
2017,07,15,19,16,19.90
2017,07,15,19,17,19.90
2017,07,15,19,18,19.90
2017,07,15,19,19,19.90
2017,07,15,19,20,19.90
2017,07,15,19,21,19.90
2017,07,15,19,22,19.80
2017,07,15,19,23,19.80
2017,07,15,19,24,19.80
2017,07,15,19,25,19.80
2017,07,15,19,26,19.80
2017,07,15,19,27,19.70
2017,07,15,19,28,19.70